[[{"header":{"parameterUnit":"m.s-1","parameterCategory":1,"la1":30.2991,"la2":30.254,"lo1":-89.0895,"lo2":-89.0444,"dy":0.0017,"dx":0.0017,"nx":28,"ny":28,"refTime":"2024-03-09T09:00:00:Z","depth":0,"parameterNumber":2,"parameterNumberName":"U-component_of_WINDS"},"data":[0,0,0,0,0,0,0,0,0,0,0,0,0,0,0,0,0,0,0,0,0,0,0,0,0,0,0,0,0,0,0,0,0,0,0,0,0,0,0,0,0,0,0,0,0,0,0,0,0,0,0,0,0,0,0,0,0,0,2.3755,2.3755,0,2.3788,2.3789,2.3789,2.3773,2.3772,2.3771,2.377,2.3803,2.3804,2.3806,0,0,0,0,0,0,0,0,0,0,0,0,0,2.3678,2.3679,2.3755,2.3756,2.3756,2.3788,2.3789,2.3789,2.3773,2.3772,2.3771,2.377,2.3802,2.3804,2.3806,0,0,0,0,0,0,0,0,0,0,0,0,0,2.3711,2.368,2.3755,2.3752,2.3752,2.3788,2.3789,2.3789,2.3773,2.3772,2.3771,2.3769,2.3801,2.3804,2.3806,2.3847,0,0,2.3814,2.3815,0,0,0,0,0,0,0,0,2.3709,2.3714,2.3752,2.3752,2.3752,2.3775,2.3773,2.3809,2.3773,2.3765,2.377,2.3769,2.3794,2.3797,2.3806,2.3849,2.385,2.3814,2.3816,2.3817,2.3817,0,0,0,0,0,0,0,2.3707,2.3712,2.3768,2.3752,2.3753,2.3749,2.3752,2.378,2.3786,2.3766,2.3765,2.3769,2.3794,2.3804,2.3807,2.385,2.3814,2.3816,2.3818,2.3819,2.393,2.3931,0,0,0,0,0,0,2.3705,2.3711,2.3767,2.3769,2.3727,2.3751,2.3755,2.3769,2.3786,2.3787,2.377,2.3768,2.38,2.3804,2.3808,2.3858,2.3817,2.3819,2.382,2.3928,2.393,2.3931,0,0,0,0,0,0,2.3703,2.371,2.3766,2.374,2.3746,2.3754,2.377,2.377,2.378,2.3789,2.379,2.3779,2.3799,2.3804,2.3838,2.3859,2.382,2.3822,2.3926,2.3929,2.3931,2.3957,0,0,0,0,0,0,2.3701,2.3709,2.3725,2.374,2.3748,2.3795,2.3771,2.3772,2.3785,2.3782,2.3798,2.3799,2.3799,2.3834,2.384,2.3861,2.3824,2.3925,2.3927,2.393,2.3954,2.396,2.3964,0,0,0,0,0,2.3698,2.373,2.3726,2.3733,2.3767,2.3796,2.3801,2.38,2.3786,2.3802,2.3808,2.3799,2.3856,2.3838,2.3845,2.3866,2.3923,2.3927,2.393,2.3952,2.3959,2.3964,0,0,0,0,0,0,2.3716,2.3732,2.3727,2.3765,2.378,2.3794,2.3813,2.3807,2.3826,2.3823,2.3821,2.3825,2.386,2.3866,2.3846,2.3908,2.3887,2.3892,2.3902,2.3908,2.3913,2.391,2.3826,0,0,0,0,0,2.3725,2.3747,2.376,2.3792,2.38,2.3806,2.3818,2.3817,2.3831,2.3837,2.3846,2.386,2.3881,2.3895,2.3915,2.3956,2.3959,2.3974,2.3979,2.3983,2.3987,2.401,2.4017,2.3942,2.3942,2.3942,0,0,2.3742,2.3754,2.3768,2.3796,2.3807,2.3831,2.3811,2.3836,2.3853,2.3841,2.3873,2.388,2.3896,2.3934,2.3951,2.394,2.4009,2.3988,2.3991,2.3992,2.4014,2.4021,2.4028,2.3944,2.3944,2.3944,0,0,2.3786,2.3797,2.3826,2.3838,2.3855,2.3859,2.3866,2.3882,2.3886,2.3919,2.3911,2.3931,2.3968,2.398,2.3991,2.4042,2.4034,2.4048,2.4075,2.4097,2.4103,2.4108,2.4127,2.4133,2.4052,2.4052,2.4053,0,2.3805,2.384,2.3841,2.3867,2.388,2.3872,2.3901,2.3912,2.3935,2.3945,2.3933,2.398,2.399,2.4031,2.4044,2.4053,2.4061,2.4046,2.4102,2.4107,2.4112,2.413,2.4137,2.4054,2.4054,2.4054,2.4054,0,2.3863,2.3888,2.3909,2.3933,2.3948,2.3976,2.3981,2.3996,2.3995,2.4,2.4034,2.4046,2.4069,2.4079,2.4077,2.412,2.4113,2.4102,2.4081,2.4121,2.4138,2.4144,2.4057,2.4056,2.4055,2.4055,0,0,2.3917,2.3943,2.395,2.3962,2.3981,2.4,2.4028,2.4052,2.4065,2.4082,2.4105,2.4138,2.4128,2.4141,2.414,2.416,2.4201,2.4147,2.4147,2.4156,2.4249,2.4257,2.4265,2.4196,2.4197,2.4198,2.4248,0,2.3963,2.4012,2.4014,2.4059,2.4082,2.4075,2.41,2.4115,2.4121,2.4142,2.4148,2.4171,2.4157,2.4165,2.4184,2.4191,2.4219,2.4188,2.4217,2.4219,2.4213,2.4274,2.4281,2.4328,2.4255,2.4256,2.4256,0,2.4021,2.4041,2.4088,2.4107,2.4116,2.4138,2.4161,2.4181,2.4198,2.4201,2.4216,2.4214,2.4242,2.4222,2.4262,2.4241,2.4253,2.4259,2.4261,2.4263,2.4239,2.4277,2.4343,2.4349,2.4267,2.4266,2.4265,0,2.4056,2.4095,2.4128,2.4138,2.416,2.4176,2.4185,2.4202,2.4216,2.4236,2.4245,2.4268,2.428,2.4298,2.4302,2.4286,2.4342,2.4321,2.4346,2.4346,2.4357,2.4356,2.4425,2.4366,2.4366,2.4365,2.4365,0,2.4106,2.4135,2.4145,2.4165,2.4198,2.4201,2.4233,2.4242,2.4257,2.4279,2.4275,2.4296,2.43,2.4322,2.4325,2.4358,2.4364,2.4367,2.4367,2.4367,2.4367,2.4375,2.4371,2.4367,2.4367,2.4367,2.4366,0,2.415,2.4157,2.4193,2.4212,2.4217,2.4241,2.4257,2.4277,2.4283,2.4312,2.4319,2.4329,2.4355,2.4361,2.4391,2.4393,2.4433,2.443,2.4427,2.4427,2.445,2.4448,2.4526,2.4537,2.4471,2.4472,2.4473,0,2.418,2.4203,2.4225,2.424,2.4251,2.4275,2.429,2.4295,2.4311,2.4333,2.4351,2.4376,2.4397,2.4439,2.4449,2.4473,2.4471,2.4497,2.4474,2.4473,2.4471,2.4469,2.4472,2.45,2.4501,2.4502,2.4502,0,2.4235,2.4238,2.426,2.4285,2.4303,2.4322,2.4341,2.4353,2.436,2.4379,2.4406,2.4422,2.4454,2.448,2.4504,2.4514,2.451,2.451,2.4516,2.4516,2.4513,2.4515,2.4438,2.4507,2.4507,2.4506,2.4506,2.4506,2.4273,2.4293,2.4312,2.4337,2.4352,2.437,2.439,2.44,2.4423,2.445,2.4451,2.4481,2.4499,2.4531,2.4543,2.4567,2.4558,2.4568,2.4571,2.4573,2.4575,2.451,2.4571,2.4571,2.4571,2.4571,2.457,0,2.4327,2.4339,2.4363,2.4389,2.441,2.4405,2.4425,2.4443,2.4469,2.4487,2.4508,2.454,2.4565,2.4578,2.4604,2.462,2.4619,2.4627,2.4625,2.4628,2.4581,2.4572,2.4627,2.4627,2.4627,2.4627,2.4627,2.4627,2.4357,2.4391,2.4397,2.4439,2.4451,2.4481,2.4493,2.451,2.4524,2.456,2.4582,2.459,2.4607,2.4634,2.4657,2.466,2.467,2.4679,2.4681,2.4637,2.4631,2.4625,2.4617,2.4681,2.4681,2.4726,2.4726,2.4727]},{"header":{"parameterUnit":"m.s-1","parameterCategory":1,"la1":30.2991,"la2":30.254,"lo1":-89.0895,"lo2":-89.0444,"dy":0.0017,"dx":0.0017,"nx":28,"ny":28,"refTime":"2024-03-09T09:00:00:Z","depth":0,"parameterNumber":3,"parameterNumberName":"V-component_of_WINDS"},"data":[0,0,0,0,0,0,0,0,0,0,0,0,0,0,0,0,0,0,0,0,0,0,0,0,0,0,0,0,0,0,0,0,0,0,0,0,0,0,0,0,0,0,0,0,0,0,0,0,0,0,0,0,0,0,0,0,0,0,-7.9866,-7.9868,0,-8.0031,-8.0033,-8.0035,-7.9967,-7.9963,-7.9959,-7.9956,-8.0119,-8.0127,-8.0135,0,0,0,0,0,0,0,0,0,0,0,0,0,-7.9487,-7.9494,-7.9866,-7.9868,-7.987,-8.0031,-8.0033,-8.0036,-7.9968,-7.9963,-7.9958,-7.9954,-8.0117,-8.0126,-8.0136,0,0,0,0,0,0,0,0,0,0,0,0,0,-7.9652,-7.9497,-7.9866,-7.9856,-7.9857,-8.0031,-8.0033,-8.0036,-7.9969,-7.9963,-7.9957,-7.9952,-8.0113,-8.0125,-8.0137,-8.0328,0,0,-8.0173,-8.0179,0,0,0,0,0,0,0,0,-7.9643,-7.9666,-7.9855,-7.9857,-7.9858,-7.9973,-7.996,-8.0134,-7.997,-7.9926,-7.9956,-7.9949,-8.0075,-8.009,-8.0133,-8.0336,-8.0343,-8.0175,-8.0182,-8.0187,-8.019,0,0,0,0,0,0,0,-7.9631,-7.9658,-7.9931,-7.9858,-7.986,-7.9842,-7.9859,-7.9992,-8.0031,-7.9929,-7.9925,-7.9946,-8.0074,-8.0122,-8.0137,-8.0345,-8.0174,-8.0185,-8.0192,-8.0197,-8.0714,-8.0721,0,0,0,0,0,0,-7.962,-7.9649,-7.9926,-7.9936,-7.9734,-7.9853,-7.9872,-7.9942,-8.003,-8.0037,-7.9951,-7.9942,-8.0104,-8.0123,-8.0142,-8.0373,-8.0187,-8.0198,-8.0205,-8.0708,-8.0716,-8.0723,0,0,0,0,0,0,-7.9612,-7.9646,-7.9919,-7.9792,-7.9825,-7.9866,-7.9945,-7.9948,-7.9996,-8.0046,-8.0052,-7.9993,-8.01,-8.0125,-8.0283,-8.0378,-8.0204,-8.0214,-8.07,-8.071,-8.0719,-8.0836,0,0,0,0,0,0,-7.9602,-7.9643,-7.9717,-7.9794,-7.9832,-8.0059,-7.9951,-7.9956,-8.0017,-8.0008,-8.0086,-8.0094,-8.0098,-8.0266,-8.0295,-8.0391,-8.0224,-8.0692,-8.0705,-8.0716,-8.0824,-8.0848,-8.087,0,0,0,0,0,-7.9589,-7.9742,-7.9722,-7.9755,-7.9926,-8.0065,-8.0087,-8.009,-8.0025,-8.0099,-8.0132,-8.0091,-8.0363,-8.0282,-8.0315,-8.0416,-8.0686,-8.0701,-8.0715,-8.0813,-8.0844,-8.0869,0,0,0,0,0,0,-7.9673,-7.9752,-7.973,-7.9913,-7.9983,-8.0053,-8.0147,-8.0121,-8.021,-8.0197,-8.0195,-8.0213,-8.0377,-8.0412,-8.0321,-8.0606,-8.0514,-8.0536,-8.0578,-8.0607,-8.0629,-8.0617,-8.0234,0,0,0,0,0,-7.9714,-7.9822,-7.9883,-8.0039,-8.0076,-8.0106,-8.0166,-8.0163,-8.0235,-8.0263,-8.0307,-8.0377,-8.0477,-8.0544,-8.0639,-8.0828,-8.0845,-8.0914,-8.0937,-8.0955,-8.0974,-8.1078,-8.1109,-8.0771,-8.0771,-8.0771,0,0,-7.9797,-7.9854,-7.9921,-8.0058,-8.0111,-8.0222,-8.0131,-8.0251,-8.0333,-8.0281,-8.0434,-8.0468,-8.0546,-8.0721,-8.08,-8.0755,-8.1071,-8.0974,-8.0989,-8.0998,-8.1096,-8.1128,-8.1157,-8.0781,-8.0779,-8.0778,0,0,-8.0007,-8.006,-8.0196,-8.0253,-8.0337,-8.0356,-8.0389,-8.0464,-8.0486,-8.0639,-8.0603,-8.0699,-8.0873,-8.093,-8.0982,-8.1215,-8.1181,-8.1246,-8.1365,-8.1466,-8.1493,-8.1516,-8.16,-8.163,-8.1264,-8.1265,-8.1265,0,-8.0099,-8.0267,-8.0269,-8.0394,-8.0455,-8.0415,-8.0552,-8.0606,-8.0716,-8.0759,-8.0707,-8.0926,-8.0975,-8.1163,-8.1221,-8.1264,-8.1301,-8.1237,-8.1489,-8.1513,-8.1535,-8.1615,-8.1646,-8.1272,-8.1271,-8.1271,-8.127,0,-8.0377,-8.0494,-8.0593,-8.0703,-8.0775,-8.0906,-8.0927,-8.0999,-8.099,-8.1014,-8.1171,-8.1229,-8.1337,-8.1381,-8.1372,-8.1569,-8.1538,-8.1489,-8.1396,-8.1575,-8.165,-8.168,-8.1283,-8.128,-8.1278,-8.1276,0,0,-8.0643,-8.0755,-8.0792,-8.0842,-8.0932,-8.1021,-8.1149,-8.1257,-8.1319,-8.1396,-8.1504,-8.1653,-8.1608,-8.1667,-8.1664,-8.1752,-8.1934,-8.1691,-8.1693,-8.1735,-8.2155,-8.2192,-8.2228,-8.1912,-8.1918,-8.1923,-8.2149,0,-8.086,-8.1088,-8.1095,-8.1302,-8.141,-8.1374,-8.1486,-8.1553,-8.1579,-8.1673,-8.1701,-8.1807,-8.174,-8.1775,-8.1861,-8.1894,-8.2018,-8.1878,-8.2011,-8.2016,-8.1994,-8.2267,-8.2306,-8.2517,-8.2178,-8.2183,-8.2186,0,-8.1143,-8.1233,-8.1452,-8.1529,-8.1574,-8.1675,-8.1774,-8.1865,-8.1939,-8.1952,-8.202,-8.2004,-8.2134,-8.2038,-8.2216,-8.212,-8.2175,-8.22,-8.2208,-8.222,-8.2112,-8.2287,-8.2584,-8.2616,-8.2232,-8.2229,-8.2225,0,-8.1317,-8.1492,-8.1646,-8.169,-8.1782,-8.1854,-8.1895,-8.1965,-8.2029,-8.2116,-8.2157,-8.2257,-8.2311,-8.2388,-8.2399,-8.2328,-8.2579,-8.2483,-8.2593,-8.2593,-8.2647,-8.2644,-8.2957,-8.2682,-8.2682,-8.2681,-8.268,0,-8.1559,-8.1694,-8.1725,-8.182,-8.1971,-8.1977,-8.2125,-8.2161,-8.2223,-8.2324,-8.2298,-8.2392,-8.2401,-8.2498,-8.2507,-8.2654,-8.2678,-8.2692,-8.2693,-8.2695,-8.2693,-8.273,-8.2716,-8.269,-8.2688,-8.2686,-8.2685,0,-8.1778,-8.1804,-8.197,-8.2045,-8.2067,-8.2175,-8.2238,-8.2329,-8.2353,-8.248,-8.251,-8.2548,-8.2661,-8.268,-8.2811,-8.2817,-8.2994,-8.2979,-8.2969,-8.2968,-8.3076,-8.3066,-8.3425,-8.3473,-8.3166,-8.3169,-8.3172,0,-8.193,-8.2035,-8.2122,-8.2188,-8.2234,-8.2341,-8.2408,-8.2417,-8.2487,-8.2582,-8.2661,-8.2771,-8.286,-8.3042,-8.308,-8.318,-8.3168,-8.3287,-8.3183,-8.3182,-8.3171,-8.3165,-8.3175,-8.3307,-8.3311,-8.3313,-8.3315,0,-8.2199,-8.2208,-8.2306,-8.2409,-8.249,-8.2571,-8.2648,-8.2703,-8.2723,-8.2803,-8.2919,-8.2989,-8.3125,-8.3235,-8.3335,-8.3376,-8.335,-8.3348,-8.3379,-8.3382,-8.3372,-8.338,-8.3025,-8.334,-8.3337,-8.3335,-8.3334,-8.3333,-8.239,-8.2481,-8.2558,-8.2668,-8.2728,-8.2801,-8.289,-8.2926,-8.3024,-8.3138,-8.3137,-8.3264,-8.3337,-8.347,-8.3517,-8.3616,-8.3578,-8.3622,-8.3633,-8.3644,-8.3655,-8.3357,-8.3634,-8.3633,-8.3633,-8.3632,-8.3632,0,-8.2658,-8.2706,-8.2808,-8.2917,-8.3004,-8.2974,-8.3058,-8.3132,-8.3246,-8.3316,-8.3406,-8.354,-8.3646,-8.3694,-8.3799,-8.3869,-8.3859,-8.3896,-8.3891,-8.3901,-8.3683,-8.3647,-8.3902,-8.3902,-8.3902,-8.3902,-8.3902,-8.3902,-8.2808,-8.2961,-8.2979,-8.3161,-8.3207,-8.3335,-8.3385,-8.3452,-8.3509,-8.3661,-8.375,-8.3781,-8.3843,-8.3952,-8.4049,-8.406,-8.4099,-8.4142,-8.4148,-8.3943,-8.3916,-8.389,-8.3855,-8.4151,-8.4151,-8.4357,-8.4359,-8.436]}]]